Time,TemperatureF,DewpointF,PressureIn,WindDirection,WindDirectionDegrees,WindSpeedMPH,WindSpeedGustMPH,Humidity,HourlyPrecipIn,Conditions,Clouds,dailyrainin,SoftwareType,DateUTC
2013-04-17 00:02:00,44.0,33.0,-100.00,East,80,14.0,18.0,65,0.00,,,-99.99,,2013-04-17 05:02:00,
2013-04-17 00:12:00,44.0,33.0,-100.00,ENE,70,15.0,20.0,65,0.00,,,-99.99,,2013-04-17 05:12:00,
2013-04-17 00:22:00,44.0,33.0,-100.00,ENE,70,15.0,20.0,65,0.00,,,-99.99,,2013-04-17 05:22:00,
2013-04-17 00:32:00,44.0,33.0,-100.00,ENE,75,16.0,21.0,66,0.00,,,-99.99,,2013-04-17 05:32:00,
2013-04-17 00:42:00,44.0,33.0,-100.00,ENE,75,16.0,21.0,66,0.00,,,-99.99,,2013-04-17 05:42:00,
2013-04-17 00:52:00,44.0,34.0,-100.00,ENE,65,15.0,19.0,67,0.00,,,-99.99,,2013-04-17 05:52:00,
2013-04-17 01:02:00,44.0,34.0,-100.00,ENE,65,15.0,19.0,67,0.00,,,-99.99,,2013-04-17 06:02:00,
2013-04-17 01:12:00,44.0,34.0,-100.00,ENE,75,10.0,19.0,68,0.00,,,-99.99,,2013-04-17 06:12:00,
2013-04-17 01:22:00,44.0,34.0,-100.00,ENE,70,14.0,19.0,68,0.00,,,-99.99,,2013-04-17 06:22:00,
2013-04-17 01:32:00,44.0,34.0,-100.00,East,80,12.0,17.0,69,0.00,,,-99.99,,2013-04-17 06:32:00,
2013-04-17 01:42:00,44.0,34.0,-100.00,East,80,12.0,17.0,69,0.00,,,-99.99,,2013-04-17 06:42:00,
2013-04-17 01:52:00,44.0,35.0,-100.00,ENE,75,11.0,17.0,70,0.00,,,-99.99,,2013-04-17 06:52:00,
2013-04-17 02:02:00,44.0,35.0,-100.00,ENE,75,11.0,17.0,70,0.00,,,-99.99,,2013-04-17 07:02:00,
2013-04-17 02:12:00,44.0,35.0,-100.00,ENE,65,11.0,16.0,70,0.00,,,-99.99,,2013-04-17 07:12:00,
2013-04-17 02:22:00,44.0,35.0,-100.00,ENE,65,13.0,17.0,70,0.00,,,-99.99,,2013-04-17 07:22:00,
2013-04-17 02:32:00,43.0,35.0,-100.00,ENE,70,13.0,20.0,72,0.00,,,-99.99,,2013-04-17 07:32:00,
2013-04-17 02:42:00,43.0,35.0,-100.00,ENE,70,13.0,20.0,72,0.00,,,-99.99,,2013-04-17 07:42:00,
2013-04-17 02:52:00,44.0,35.0,-100.00,East,85,14.0,22.0,72,0.00,,,-99.99,,2013-04-17 07:52:00,
2013-04-17 03:02:00,44.0,35.0,-100.00,East,85,14.0,22.0,72,0.00,,,-99.99,,2013-04-17 08:02:00,
2013-04-17 03:12:00,43.0,35.0,-100.00,ENE,65,14.0,17.0,73,0.00,,,-99.99,,2013-04-17 08:12:00,
2013-04-17 03:22:00,43.0,35.0,-100.00,ENE,65,14.0,17.0,73,0.00,,,-99.99,,2013-04-17 08:22:00,
2013-04-17 03:32:00,43.0,36.0,-100.00,ENE,60,10.0,18.0,74,0.00,,,-99.99,,2013-04-17 08:32:00,
2013-04-17 03:42:00,43.0,36.0,-100.00,ENE,60,10.0,18.0,74,0.00,,,-99.99,,2013-04-17 08:42:00,
2013-04-17 03:52:00,43.0,36.0,-100.00,ENE,60,10.0,18.0,74,0.00,,,-99.99,,2013-04-17 08:52:00,
2013-04-17 04:02:00,43.0,36.0,-100.00,ENE,60,10.0,18.0,74,0.00,,,-99.99,,2013-04-17 09:02:00,
2013-04-17 04:12:00,43.0,36.0,-100.00,East,80,12.0,17.0,75,0.00,,,-99.99,,2013-04-17 09:12:00,
2013-04-17 04:22:00,43.0,36.0,-100.00,ENE,75,14.0,17.0,75,0.00,,,-99.99,,2013-04-17 09:22:00,
2013-04-17 04:33:00,43.0,36.0,-100.00,ENE,75,14.0,17.0,75,0.00,,,-99.99,,2013-04-17 09:33:00,
2013-04-17 04:42:00,43.0,36.0,-100.00,ENE,75,14.0,17.0,75,0.00,,,-99.99,,2013-04-17 09:42:00,
2013-04-17 04:52:00,43.0,36.0,-100.00,East,95,12.0,19.0,76,0.00,,,-99.99,,2013-04-17 09:52:00,
2013-04-17 05:02:00,43.0,36.0,-100.00,East,95,12.0,19.0,76,0.00,,,-99.99,,2013-04-17 10:02:00,
2013-04-17 05:12:00,43.0,36.0,-100.00,East,95,10.0,16.0,75,0.00,,,-99.99,,2013-04-17 10:12:00,
2013-04-17 05:23:00,43.0,36.0,-100.00,East,95,10.0,16.0,75,0.00,,,-99.99,,2013-04-17 10:23:00,
2013-04-17 05:32:00,43.0,37.0,-100.00,East,95,16.0,24.0,79,0.40,,,-99.99,,2013-04-17 10:32:00,
2013-04-17 05:42:00,43.0,37.0,-100.00,East,95,16.0,24.0,79,0.40,,,-99.99,,2013-04-17 10:42:00,
2013-04-17 05:52:00,42.0,38.0,-100.00,East,90,12.0,20.0,82,0.00,,,-99.99,,2013-04-17 10:52:00,
2013-04-17 06:02:00,42.0,38.0,-100.00,East,90,12.0,20.0,82,0.00,,,-99.99,,2013-04-17 11:02:00,
2013-04-17 06:12:00,42.0,38.0,-100.00,East,95,16.0,26.0,83,0.00,,,-99.99,,2013-04-17 11:12:00,
2013-04-17 06:22:00,42.0,38.0,-100.00,East,90,17.0,26.0,84,0.00,,,-99.99,,2013-04-17 11:22:00,
2013-04-17 06:32:00,42.0,38.0,-100.00,East,95,16.0,26.0,86,0.00,,,-99.99,,2013-04-17 11:32:00,
2013-04-17 06:42:00,42.0,38.0,-100.00,East,95,16.0,26.0,86,0.00,,,-99.99,,2013-04-17 11:42:00,
2013-04-17 06:52:00,42.0,39.0,-100.00,East,90,14.0,24.0,89,0.18,,,-99.99,,2013-04-17 11:52:00,
2013-04-17 07:02:00,42.0,39.0,-100.00,East,90,14.0,24.0,89,0.18,,,-99.99,,2013-04-17 12:02:00,
2013-04-17 07:12:00,42.0,39.0,-100.00,ENE,70,15.0,22.0,91,1.11,,,-99.99,,2013-04-17 12:12:00,
2013-04-17 07:22:00,42.0,39.0,-100.00,ENE,70,15.0,22.0,91,1.11,,,-99.99,,2013-04-17 12:22:00,
2013-04-17 07:32:00,42.0,40.0,-100.00,ESE,120,6.0,17.0,93,0.78,,,-99.99,,2013-04-17 12:32:00,
2013-04-17 07:42:00,42.0,40.0,-100.00,ESE,120,6.0,17.0,93,0.78,,,-99.99,,2013-04-17 12:42:00,
2013-04-17 07:52:00,41.0,40.0,-100.00,East,85,16.0,20.0,94,0.41,,,-99.99,,2013-04-17 12:52:00,
2013-04-17 08:02:00,41.0,40.0,-100.00,East,85,16.0,20.0,94,0.41,,,-99.99,,2013-04-17 13:02:00,
2013-04-17 08:12:00,41.0,40.0,-100.00,East,85,16.0,21.0,94,0.71,,,-99.99,,2013-04-17 13:12:00,
2013-04-17 08:22:00,41.0,40.0,-100.00,ENE,70,9.0,24.0,94,0.88,,,-99.99,,2013-04-17 13:22:00,
2013-04-17 08:32:00,41.0,40.0,-100.00,ENE,70,9.0,24.0,94,0.88,,,-99.99,,2013-04-17 13:32:00,
2013-04-17 08:42:00,41.0,40.0,-100.00,ENE,70,9.0,24.0,94,0.88,,,-99.99,,2013-04-17 13:42:00,
2013-04-17 08:52:00,41.0,40.0,-100.00,ENE,65,10.0,12.0,94,0.78,,,-99.99,,2013-04-17 13:52:00,
2013-04-17 09:02:00,41.0,40.0,-100.00,ENE,65,10.0,12.0,94,0.78,,,-99.99,,2013-04-17 14:02:00,
2013-04-17 09:12:00,41.0,40.0,-100.00,ENE,65,14.0,21.0,94,0.79,,,-99.99,,2013-04-17 14:12:00,
2013-04-17 09:22:00,41.0,40.0,-100.00,ENE,65,14.0,21.0,94,0.79,,,-99.99,,2013-04-17 14:22:00,
2013-04-17 09:30:00,41.0,40.0,-100.00,North,-999,-999.0,-999.0,94,0.00,,,-99.99,,2013-04-17 14:30:00,
2013-04-17 09:32:00,41.0,40.0,-100.00,East,100,26.0,32.0,94,0.37,,,-99.99,,2013-04-17 14:32:00,
2013-04-17 09:42:00,41.0,40.0,-100.00,East,100,26.0,32.0,94,0.37,,,-99.99,,2013-04-17 14:42:00,
2013-04-17 09:52:00,41.0,40.0,-100.00,North,-999,-999.0,-999.0,94,0.00,,,-99.99,,2013-04-17 14:52:00,
2013-04-17 10:02:00,41.0,40.0,-100.00,North,-999,-999.0,-999.0,94,0.00,,,-99.99,,2013-04-17 15:02:00,
2013-04-17 10:12:00,41.0,40.0,-100.00,North,-999,-999.0,-999.0,94,0.00,,,-99.99,,2013-04-17 15:12:00,
2013-04-17 10:22:00,41.0,40.0,-100.00,North,-999,-999.0,-999.0,94,0.00,,,-99.99,,2013-04-17 15:22:00,
2013-04-17 11:52:00,42.0,40.0,-100.00,NE,55,21.0,-999.0,94,0.00,,,-99.99,,2013-04-17 16:52:00,
2013-04-17 12:02:00,42.0,40.0,-100.00,NE,55,21.0,-999.0,94,0.00,,,-99.99,,2013-04-17 17:02:00,
2013-04-17 12:12:00,42.0,40.0,-100.00,SE,135,6.0,9.0,94,0.00,,,-99.99,,2013-04-17 17:12:00,
2013-04-17 12:22:00,41.0,40.0,-100.00,SE,125,12.0,15.0,94,0.00,,,-99.99,,2013-04-17 17:22:00,
2013-04-17 12:33:00,42.0,40.0,-100.00,East,80,12.0,17.0,94,0.00,,,-99.99,,2013-04-17 17:33:00,
2013-04-17 12:42:00,42.0,40.0,-100.00,East,80,12.0,17.0,94,0.00,,,-99.99,,2013-04-17 17:42:00,
2013-04-17 12:52:00,42.0,40.0,-100.00,ENE,70,11.0,17.0,94,0.00,,,-99.99,,2013-04-17 17:52:00,
2013-04-17 13:02:00,42.0,40.0,-100.00,ENE,70,11.0,17.0,94,0.00,,,-99.99,,2013-04-17 18:02:00,
2013-04-17 13:12:00,42.0,40.0,-100.00,ENE,65,4.0,12.0,94,0.00,,,-99.99,,2013-04-17 18:12:00,
2013-04-17 13:22:00,41.0,40.0,-100.00,ENE,65,12.0,19.0,94,0.24,,,-99.99,,2013-04-17 18:22:00,
2013-04-17 13:32:00,41.0,40.0,-100.00,East,95,15.0,33.0,94,0.00,,,-99.99,,2013-04-17 18:32:00,
2013-04-17 13:42:00,41.0,40.0,-100.00,East,95,15.0,33.0,94,0.00,,,-99.99,,2013-04-17 18:42:00,
2013-04-17 13:52:00,41.0,40.0,-100.00,NNE,25,8.0,19.0,94,0.23,,,-99.99,,2013-04-17 18:52:00,
2013-04-17 14:02:00,41.0,40.0,-100.00,NNE,25,8.0,19.0,94,0.23,,,-99.99,,2013-04-17 19:02:00,
2013-04-17 14:12:00,42.0,40.0,-100.00,NNW,340,9.0,11.0,94,0.20,,,-99.99,,2013-04-17 19:12:00,
2013-04-17 14:22:00,41.0,40.0,-100.00,NE,45,14.0,17.0,94,0.00,,,-99.99,,2013-04-17 19:22:00,
2013-04-17 14:32:00,40.0,39.0,-100.00,NNE,20,7.0,12.0,94,0.00,,,-99.99,,2013-04-17 19:32:00,
2013-04-17 14:42:00,40.0,39.0,-100.00,NNE,20,7.0,12.0,94,0.00,,,-99.99,,2013-04-17 19:42:00,
2013-04-17 14:52:00,40.0,39.0,-100.00,NE,40,10.0,14.0,94,0.00,,,-99.99,,2013-04-17 19:52:00,
2013-04-17 15:02:00,40.0,39.0,-100.00,NE,40,10.0,14.0,94,0.00,,,-99.99,,2013-04-17 20:02:00,
2013-04-17 15:12:00,40.0,39.0,-100.00,NE,45,12.0,18.0,94,0.00,,,-99.99,,2013-04-17 20:12:00,
2013-04-17 15:22:00,40.0,39.0,-100.00,NE,35,13.0,17.0,94,0.41,,,-99.99,,2013-04-17 20:22:00,
2013-04-17 15:32:00,40.0,39.0,-100.00,NE,50,12.0,16.0,94,0.23,,,-99.99,,2013-04-17 20:32:00,
2013-04-17 15:42:00,40.0,39.0,-100.00,NE,50,12.0,16.0,94,0.23,,,-99.99,,2013-04-17 20:42:00,
2013-04-17 15:52:00,40.0,38.0,-100.00,NE,45,7.0,17.0,94,0.00,,,-99.99,,2013-04-17 20:52:00,
2013-04-17 16:02:00,40.0,38.0,-100.00,NE,45,7.0,17.0,94,0.00,,,-99.99,,2013-04-17 21:02:00,
2013-04-17 16:12:00,40.0,38.0,-100.00,NE,50,12.0,16.0,94,0.00,,,-99.99,,2013-04-17 21:12:00,
2013-04-17 16:22:00,40.0,38.0,-100.00,NNE,30,15.0,17.0,94,0.40,,,-99.99,,2013-04-17 21:22:00,
2013-04-17 16:33:00,40.0,38.0,-100.00,NNE,25,9.0,20.0,94,0.33,,,-99.99,,2013-04-17 21:33:00,
2013-04-17 16:42:00,40.0,38.0,-100.00,NNE,25,9.0,20.0,94,0.33,,,-99.99,,2013-04-17 21:42:00,
2013-04-17 16:53:00,40.0,38.0,-100.00,ENE,65,14.0,22.0,94,0.31,,,-99.99,,2013-04-17 21:53:00,
2013-04-17 17:02:00,40.0,38.0,-100.00,ENE,65,14.0,22.0,94,0.31,,,-99.99,,2013-04-17 22:02:00,
2013-04-17 17:12:00,40.0,38.0,-100.00,NE,50,12.0,22.0,94,0.25,,,-99.99,,2013-04-17 22:12:00,
2013-04-17 17:22:00,40.0,38.0,-100.00,NNE,30,21.0,26.0,94,0.28,,,-99.99,,2013-04-17 22:22:00,
2013-04-17 17:33:00,40.0,38.0,-100.00,ENE,60,16.0,22.0,94,0.86,,,-99.99,,2013-04-17 22:33:00,
2013-04-17 17:42:00,40.0,38.0,-100.00,ENE,60,16.0,22.0,94,0.86,,,-99.99,,2013-04-17 22:42:00,
2013-04-17 17:52:00,40.0,38.0,-100.00,NNE,20,11.0,17.0,94,0.28,,,-99.99,,2013-04-17 22:52:00,
2013-04-17 18:02:00,40.0,38.0,-100.00,NNE,20,11.0,17.0,94,0.28,,,-99.99,,2013-04-17 23:02:00,
2013-04-17 18:12:00,40.0,38.0,-100.00,NNE,20,11.0,17.0,94,0.28,,,-99.99,,2013-04-17 23:12:00,
2013-04-17 18:22:00,40.0,39.0,-100.00,West,260,22.0,26.0,94,0.61,,,-99.99,,2013-04-17 23:22:00,
2013-04-17 18:32:00,40.0,38.0,-100.00,North,0,7.0,11.0,94,1.36,,,-99.99,,2013-04-17 23:32:00,
2013-04-17 18:42:00,40.0,38.0,-100.00,North,0,7.0,11.0,94,1.36,,,-99.99,,2013-04-17 23:42:00,
2013-04-17 18:52:00,40.0,38.0,-100.00,NE,55,7.0,10.0,94,0.67,,,-99.99,,2013-04-17 23:52:00,
2013-04-17 19:02:00,40.0,38.0,-100.00,NE,55,7.0,10.0,94,0.67,,,-99.99,,2013-04-18 00:02:00,
2013-04-17 19:12:00,40.0,38.0,-100.00,ENE,60,7.0,12.0,94,0.91,,,-99.99,,2013-04-18 00:12:00,
2013-04-17 19:22:00,40.0,38.0,-100.00,ENE,65,16.0,20.0,94,0.99,,,-99.99,,2013-04-18 00:22:00,
2013-04-17 19:32:00,40.0,38.0,-100.00,NE,55,21.0,28.0,94,0.08,,,-99.99,,2013-04-18 00:32:00,
2013-04-17 19:42:00,40.0,38.0,-100.00,NE,55,21.0,28.0,94,0.08,,,-99.99,,2013-04-18 00:42:00,
2013-04-17 19:52:00,40.0,39.0,-100.00,ENE,75,17.0,25.0,94,0.41,,,-99.99,,2013-04-18 00:52:00,
2013-04-17 20:02:00,40.0,39.0,-100.00,ENE,75,17.0,25.0,94,0.41,,,-99.99,,2013-04-18 01:02:00,
2013-04-17 20:12:00,40.0,39.0,-100.00,East,90,29.0,37.0,94,0.20,,,-99.99,,2013-04-18 01:12:00,
2013-04-17 20:22:00,40.0,39.0,-100.00,East,90,29.0,37.0,94,0.20,,,-99.99,,2013-04-18 01:22:00,
2013-04-17 20:32:00,41.0,40.0,-100.00,WNW,300,4.0,32.0,94,0.00,,,-99.99,,2013-04-18 01:32:00,
2013-04-17 20:42:00,41.0,40.0,-100.00,WNW,300,4.0,32.0,94,0.00,,,-99.99,,2013-04-18 01:42:00,
2013-04-17 20:52:00,41.0,39.0,-100.00,North,350,17.0,22.0,94,0.48,,,-99.99,,2013-04-18 01:52:00,
2013-04-17 21:02:00,41.0,39.0,-100.00,North,350,17.0,22.0,94,0.48,,,-99.99,,2013-04-18 02:02:00,
2013-04-17 21:12:00,40.0,39.0,-100.00,NNW,330,11.0,18.0,94,0.20,,,-99.99,,2013-04-18 02:12:00,
2013-04-17 21:22:00,40.0,39.0,-100.00,North,350,12.0,20.0,94,0.38,,,-99.99,,2013-04-18 02:22:00,
2013-04-17 21:32:00,40.0,39.0,-100.00,North,0,16.0,20.0,94,0.79,,,-99.99,,2013-04-18 02:32:00,
2013-04-17 21:42:00,40.0,39.0,-100.00,North,0,16.0,20.0,94,0.79,,,-99.99,,2013-04-18 02:42:00,
2013-04-17 21:52:00,40.0,39.0,-100.00,North,0,16.0,20.0,94,0.79,,,-99.99,,2013-04-18 02:52:00,
2013-04-17 22:02:00,40.0,39.0,-100.00,North,0,15.0,24.0,94,0.00,,,-99.99,,2013-04-18 03:02:00,
2013-04-17 22:12:00,40.0,38.0,-100.00,North,355,19.0,24.0,94,0.00,,,-99.99,,2013-04-18 03:12:00,
2013-04-17 22:22:00,40.0,38.0,-100.00,North,0,16.0,21.0,94,0.00,,,-99.99,,2013-04-18 03:22:00,
2013-04-17 22:33:00,40.0,38.0,-100.00,North,355,17.0,21.0,94,0.00,,,-99.99,,2013-04-18 03:33:00,
2013-04-17 22:43:00,40.0,38.0,-100.00,North,355,17.0,21.0,94,0.00,,,-99.99,,2013-04-18 03:43:00,
2013-04-17 22:53:00,39.0,38.0,-100.00,North,350,16.0,21.0,94,0.00,,,-99.99,,2013-04-18 03:53:00,
2013-04-17 23:03:00,39.0,38.0,-100.00,North,350,16.0,21.0,94,0.00,,,-99.99,,2013-04-18 04:03:00,
2013-04-17 23:13:00,39.0,38.0,-100.00,North,0,18.0,23.0,94,0.00,,,-99.99,,2013-04-18 04:13:00,
2013-04-17 23:23:00,39.0,38.0,-100.00,North,0,17.0,24.0,94,0.28,,,-99.99,,2013-04-18 04:23:00,
2013-04-17 23:33:00,39.0,38.0,-100.00,North,0,16.0,24.0,94,0.54,,,-99.99,,2013-04-18 04:33:00,
2013-04-17 23:43:00,39.0,38.0,-100.00,North,0,16.0,24.0,94,0.54,,,-99.99,,2013-04-18 04:43:00,
2013-04-17 23:53:00,39.0,38.0,-100.00,North,0,19.0,24.0,94,0.34,,,-99.99,,2013-04-18 04:53:00,